Temperature
16 16 17 17 14 12 14 15 16 17 17 19 19 19 17 17 17 19 19 19 18 17 16 15 14 14 14 14 13 13 13 13 12 12 12 11 11 11 11 11 11 11 11 11 12 12 11 11 11
16 16 17 16 13 13 14 15 16 17 19 19 19 19 18 19 19 19 19 18 18 17 16 15 14 14 14 14 13 13 13 13 12 12 11 11 11 11 11 11 11 11 11 11 11 11 11 11 11
16 16 17 13 13 13 16 16 15 18 19 19 18 19 19 20 20 20 20 18 17 17 16 15 14 14 14 14 13 13 12 12 12 12 11 11 11 11 10 11 11 11 11 11 11 11 11 11 11
16 16 16 12 14 14 15 17 16 17 18 19 19 18 19 20 20 20 19 18 17 16 16 15 14 14 14 13 13 13 12 12 12 11 11 11 10 10 10 11 11 11 11 11 11 11 11 11 11
16 16 14 13 14 14 14 16 17 17 17 18 19 17 19 19 20 20 19 18 18 17 15 15 14 14 14 13 13 13 12 12 12 11 11 11 11 11 11 11 11 11 11 11 11 11 10 10 10
16 13 12 13 14 15 15 17 18 17 18 18 18 17 19 19 19 19 19 18 18 17 16 15 14 14 14 13 13 13 12 12 12 11 11 11 11 11 11 11 11 11 10 10 10 10 10 10 10
15 12 12 13 14 15 17 18 18 17 17 18 20 17 19 19 19 19 18 18 17 16 15 15 14 14 13 13 13 13 12 12 11 11 11 11 11 11 11 11 11 10 10 10 10 10 10 10 10
16 12 13 13 14 16 17 18 19 19 18 20 20 18 19 20 19 18 18 17 16 16 15 15 14 14 13 13 13 13 12 12 12 11 11 11 11 11 11 11 11 10 10 10 10 10 10 10 9
15 12 12 13 14 16 17 18 19 19 19 19 19 20 21 20 19 18 17 16 16 15 15 15 14 14 14 13 13 13 12 12 12 11 11 11 11 11 11 11 10 10 10 10 9 9 9 9 9
14 12 13 15 15 16 17 18 18 18 17 18 19 20 20 20 19 18 18 17 16 16 15 15 14 14 14 13 13 12 12 12 12 12 11 11 11 11 11 10 10 10 10 9 9 9 9 9 9
12 12 14 15 17 17 17 18 18 18 17 18 19 20 20 20 19 19 19 19 19 18 16 15 15 14 14 13 13 13 12 12 12 12 11 11 11 11 10 10 10 10 10 9 9 9 9 9 9
12 13 14 16 17 17 17 18 18 18 19 20 21 21 20 20 19 20 20 19 18 17 17 16 15 14 14 14 13 13 12 12 12 12 11 11 11 11 10 10 10 10 9 9 9 9 9 9 9
13 13 15 16 17 17 17 17 17 18 20 20 20 20 20 20 20 20 20 19 19 18 17 16 15 15 14 14 13 13 13 12 12 12 11 11 11 11 10 10 10 10 9 9 9 9 9 9 9
13 14 15 16 16 16 16 16 16 18 19 19 19 19 20 20 20 20 19 19 19 18 18 17 16 15 14 14 14 13 13 12 12 12 11 11 11 11 10 10 10 10 9 9 9 9 9 9 9
15 14 13 14 15 15 15 14 14 18 18 18 19 19 19 20 20 20 20 20 20 19 18 17 17 16 15 14 14 13 13 12 12 12 11 11 11 11 10 10 10 10 9 9 9 9 9 9 9
13 13 13 14 14 14 15 14 15 18 17 17 18 18 19 19 19 20 20 20 20 19 18 18 17 16 15 15 14 14 13 13 12 12 11 11 11 10 10 10 10 10 9 9 9 9 9 9 9
12 11 12 13 14 13 13 13 15 17 16 16 17 18 18 19 19 19 19 19 19 19 19 18 17 17 16 15 14 14 13 13 12 12 11 11 11 10 10 10 10 9 9 9 9 9 9 9 9
11 11 11 12 13 13 12 13 14 16 16 16 17 17 18 18 19 20 19 19 19 19 18 18 17 17 16 15 13 13 13 12 12 12 11 11 11 10 10 10 10 9 9 9 9 9 9 9 9
12 11 12 12 14 13 12 13 14 14 14 14 15 16 17 19 20 20 19 19 19 18 18 18 17 17 16 14 14 13 13 13 12 12 11 11 11 11 10 10 10 9 9 9 9 9 9 9 9
12 12 12 13 13 13 12 12 13 13 13 15 15 16 17 19 19 20 19 19 19 19 18 18 18 17 16 16 16 15 14 13 13 12 11 11 11 11 10 10 10 10 9 9 9 9 9 9 9
11 11 12 12 13 13 13 12 13 13 13 15 16 17 18 19 19 20 20 19 19 19 19 18 18 18 17 17 15 14 13 12 12 11 11 11 11 11 10 10 10 9 9 9 9 9 9 9 9
11 12 12 12 12 11 12 11 12 12 13 13 14 16 17 19 19 20 20 20 20 20 19 19 19 18 18 17 15 14 13 13 13 13 12 12 11 11 10 10 10 10 9 9 9 9 9 9 9
11 12 12 12 11 11 11 10 11 11 12 13 13 16 18 19 19 19 20 20 20 20 19 19 19 18 18 17 16 15 15 14 14 13 12 12 11 11 10 10 10 9 9 9 9 9 9 9 9
12 11 11 11 10 10 10 10 10 11 12 13 14 16 18 19 19 19 19 19 19 19 19 19 19 18 18 17 16 16 15 15 14 13 12 12 11 11 10 10 10 9 9 9 9 9 9 9 9
11 10 10 9 9 10 10 10 11 12 12 13 14 16 18 18 19 19 19 19 19 19 19 19 18 18 18 17 16 16 15 15 14 14 13 12 12 11 10 10 10 9 9 9 9 9 9 9 8
10 10 10 10 10 9 9 10 11 12 12 14 15 16 17 18 19 19 19 19 19 19 19 19 18 18 17 17 16 15 15 14 14 13 13 12 12 12 11 10 10 9 9 9 9 9 9 8 8
10 10 10 10 9 9 9 9 10 11 11 12 13 14 16 18 18 18 19 19 19 19 19 18 18 17 17 16 16 15 14 14 14 13 13 12 12 12 11 10 10 9 9 9 9 9 8 8 8
11 10 10 9 9 10 9 9 10 12 13 13 12 13 16 17 18 18 18 19 18 18 18 18 17 17 17 16 15 14 14 13 13 13 12 12 11 11 11 10 10 9 9 9 9 8 8 8 8
9 10 9 9 9 9 9 10 11 12 13 14 14 15 16 17 18 18 18 18 18 18 17 17 17 16 16 15 14 14 13 13 12 12 12 11 11 11 10 10 10 9 9 9 8 8 8 8 7
9 9 9 9 8 8 9 11 12 12 13 13 14 15 16 17 18 18 18 18 18 17 17 17 16 16 15 15 14 13 13 12 11 11 11 11 10 10 10 10 9 9 9 8 8 8 8 7 7
Wind_Speed
2 3 3 4 5 3 4 6 4 4 4 2 4 7 9 8 6 4 2 11 11 13 18 21 22 21 20 19 18 16 16 14 13 13 13 13 13 12 13 13 13 14 14 14 14 14 14 14 14
2 2 4 5 4 2 6 6 7 7 5 4 4 5 5 4 2 5 6 9 13 15 18 19 23 22 20 19 18 17 16 14 14 13 13 13 12 12 12 13 13 13 13 14 14 13 13 13 13
3 3 4 4 4 7 7 6 8 4 5 4 3 2 5 5 5 8 7 12 12 13 16 20 24 22 21 20 19 17 16 15 14 14 13 13 13 12 12 13 13 13 13 13 13 12 12 12 12
3 4 5 3 7 7 7 5 4 4 3 3 5 3 1 0 6 7 11 14 15 12 15 20 24 23 22 21 19 18 17 16 15 14 13 13 12 12 12 12 12 12 11 11 11 11 11 12 12
4 4 2 3 7 6 6 6 4 5 6 5 6 6 2 2 4 9 15 15 16 13 15 19 23 23 22 21 20 19 18 17 15 14 13 13 12 12 11 11 11 10 10 10 10 10 10 11 11
4 4 3 6 8 6 6 5 5 5 4 4 7 7 4 2 7 11 14 14 14 13 13 18 23 23 22 21 20 19 18 17 16 14 13 13 12 11 11 10 10 9 9 9 9 9 9 9 9
5 4 5 6 5 6 5 6 7 7 6 8 9 8 3 3 7 11 11 10 10 10 10 12 18 21 22 21 20 20 18 17 16 15 14 13 12 11 10 10 9 8 8 8 7 8 8 8 8
5 5 5 5 6 6 4 4 5 9 7 5 9 10 7 7 10 11 10 9 9 9 8 8 12 16 18 19 20 20 19 18 17 15 14 13 12 11 10 9 8 7 7 7 6 6 6 7 7
5 3 6 7 8 6 3 3 2 3 5 4 3 4 3 15 17 15 11 10 11 11 8 7 9 12 15 16 19 19 19 18 17 15 15 13 10 9 9 7 6 6 6 5 5 5 6 6 7
6 7 10 6 6 4 2 4 4 4 4 3 2 3 9 18 20 20 18 19 18 18 14 9 9 11 13 15 16 15 15 16 15 15 14 12 10 9 8 6 5 5 5 4 4 5 6 6 6
8 9 7 7 6 4 3 3 3 7 6 9 10 10 14 17 18 19 19 20 20 18 17 14 11 11 12 10 12 12 12 13 14 15 15 13 10 8 6 5 3 3 4 3 4 5 5 5 5
7 8 7 6 6 5 5 3 3 7 9 6 8 13 17 20 21 21 21 19 15 16 18 15 13 11 12 11 10 11 10 11 11 14 15 12 8 6 5 4 4 3 3 2 2 3 4 4 4
9 6 7 8 7 6 5 6 5 7 7 2 7 13 18 21 20 19 16 14 14 17 18 17 15 14 12 10 9 10 10 11 13 14 15 14 9 6 6 5 5 4 4 3 2 2 2 3 4
8 9 8 7 8 5 7 8 5 10 5 5 9 14 17 20 20 14 12 14 16 18 18 17 17 15 13 11 9 9 11 13 13 14 15 16 12 9 7 5 5 5 5 4 3 2 2 2 3
5 6 7 8 8 6 5 10 10 11 6 7 9 12 14 16 14 16 18 18 19 19 18 18 18 16 16 14 11 10 12 13 12 13 16 16 14 12 9 5 5 6 6 5 4 3 3 2 2
5 6 9 9 9 8 9 14 11 9 9 11 10 10 12 14 14 15 15 14 15 14 17 18 17 18 18 15 12 10 12 13 12 14 15 16 16 14 11 6 5 7 7 6 4 2 2 2 2
6 9 11 8 8 8 11 11 10 8 10 11 11 11 12 13 13 14 13 14 14 16 17 19 18 19 19 16 11 10 10 11 12 14 14 15 16 16 12 8 7 9 7 4 3 2 2 2 2
10 9 8 11 7 9 10 11 9 7 10 12 12 11 11 14 18 15 15 14 14 15 16 17 18 18 16 13 9 8 8 9 11 12 14 16 16 16 13 9 9 9 5 4 3 3 3 2 2
9 9 9 8 6 9 12 13 14 10 8 11 12 11 13 15 15 13 13 13 13 14 16 18 19 18 16 14 14 13 13 11 10 10 14 16 16 16 13 8 8 7 6 6 6 4 3 2 1
12 11 9 5 5 8 8 12 12 11 10 11 13 13 14 13 11 11 12 13 15 17 19 19 20 20 19 17 15 12 10 8 8 7 11 16 16 16 14 10 8 7 6 6 6 4 4 2 2
17 16 13 7 2 2 3 9 10 9 8 9 11 12 11 14 15 13 12 13 14 17 19 19 21 21 22 18 11 8 6 5 6 9 10 12 16 16 15 13 10 9 8 7 7 6 6 4 1
21 15 11 9 5 6 5 7 9 8 9 11 13 12 13 13 13 12 11 11 14 18 17 19 20 20 20 18 17 17 13 12 13 10 10 10 13 15 16 15 13 10 8 8 7 6 5 5 3
10 10 11 10 8 8 5 6 9 6 11 13 13 14 14 14 14 13 13 13 14 15 15 16 17 18 19 20 20 20 15 12 8 7 11 11 10 12 14 14 12 10 8 8 8 7 6 5 5
7 6 5 5 6 14 16 11 9 8 12 9 10 12 13 13 12 12 10 9 10 10 12 14 16 17 18 20 20 21 19 14 13 11 13 11 8 8 11 12 11 10 8 9 8 8 8 6 5
10 9 8 9 11 12 10 11 12 11 11 12 12 12 12 11 10 10 10 10 10 11 13 14 16 17 18 20 20 20 19 18 18 15 15 12 9 8 12 11 10 9 9 10 9 8 8 7 7
17 15 11 10 10 7 7 12 10 11 10 11 12 12 11 11 10 10 10 10 10 11 13 14 16 16 18 19 20 18 17 14 13 13 12 14 12 12 12 12 11 11 11 10 9 7 7 7 7
13 14 8 4 4 4 7 7 9 7 9 10 11 11 12 12 10 10 9 9 9 11 12 14 16 15 17 18 17 16 16 15 13 13 11 11 9 9 12 12 12 11 11 10 10 7 7 7 7
11 10 7 8 8 8 6 7 7 8 12 12 12 13 14 11 9 9 8 8 8 8 9 11 12 14 14 16 16 14 16 15 13 13 13 12 11 11 12 12 12 11 10 10 10 7 7 7 6
9 12 8 7 6 7 6 8 9 13 13 14 16 15 13 12 11 9 7 7 6 7 8 9 10 11 12 14 14 14 14 13 13 13 13 12 11 12 13 13 13 12 11 10 10 9 9 8 7
8 10 10 10 7 7 5 9 6 11 11 11 12 11 10 10 7 6 6 6 7 7 8 9 10 11 12 12 12 13 12 12 13 12 12 12 12 12 13 12 12 12 11 11 11 11 10 9 9
Wind_Direction
349 73 81 61 60 56 236 239 223 230 219 205 158 155 164 170 173 194 138 146 140 151 164 164 158 153 150 146 141 138 134 130 125 121 117 114 110 106 102 97 93 89 86 83 82 81 81 78 74
115 106 63 67 107 207 253 236 220 218 191 126 101 119 145 195 179 135 144 163 149 153 160 161 159 156 153 148 145 143 140 137 133 128 123 119 115 111 107 101 97 93 89 87 84 83 82 79 76
128 71 94 96 159 197 230 226 218 222 180 158 133 146 173 180 167 173 175 156 146 152 158 162 160 158 155 152 150 148 145 142 138 133 128 124 120 116 111 105 100 96 92 89 86 84 82 80 77
101 56 64 112 224 226 225 236 191 160 185 187 147 132 226 325 174 175 150 151 148 151 158 164 162 160 157 156 154 153 149 147 143 138 134 128 123 118 113 110 106 101 96 91 88 85 83 81 79
68 90 116 241 243 245 238 240 198 183 186 176 150 148 167 21 113 137 148 154 154 155 160 167 165 163 160 158 157 156 154 151 147 144 140 134 129 125 121 117 112 106 100 94 90 86 83 80 78
72 86 154 233 247 258 251 214 174 193 189 169 152 150 177 95 135 149 153 155 156 156 160 169 168 165 162 161 160 159 157 154 150 147 144 140 136 133 130 125 118 112 105 98 93 89 85 81 78
133 139 200 221 247 260 242 185 179 186 195 196 167 150 211 169 161 146 143 143 147 154 158 169 169 166 165 165 164 163 161 159 155 153 150 146 143 141 137 132 127 120 111 103 96 90 85 80 76
151 148 205 218 224 249 232 183 192 177 205 173 152 157 201 184 147 132 128 136 147 156 162 168 165 163 164 166 167 166 165 163 160 157 153 150 150 148 142 137 134 128 119 111 99 88 79 72 67
124 146 214 213 205 237 231 198 200 166 143 158 192 188 185 137 140 139 143 155 167 174 176 171 163 161 162 164 169 168 168 166 162 159 156 152 147 144 141 143 145 140 130 117 100 83 69 60 51
153 202 220 212 203 217 232 210 192 139 157 181 160 72 121 143 154 161 168 175 181 185 185 179 170 163 162 167 168 167 166 165 160 158 156 152 151 148 147 157 157 141 124 106 86 69 59 55 46
183 209 222 229 225 223 230 229 196 158 203 207 193 171 154 160 168 175 180 183 187 186 185 185 178 169 167 166 164 164 163 161 159 159 159 157 156 156 154 158 151 126 108 84 65 58 55 52 44
199 226 216 223 217 216 219 219 213 195 219 225 196 163 164 172 180 186 188 188 184 184 190 186 181 176 174 169 168 166 163 163 163 166 165 161 158 161 166 166 165 153 136 110 79 65 56 54 50
217 233 224 230 230 227 227 233 230 240 242 205 139 157 177 183 191 195 191 183 182 188 190 189 185 182 177 172 172 173 172 172 171 171 174 172 170 172 175 177 174 175 170 153 131 94 66 57 56
215 221 237 237 233 226 224 247 221 246 224 172 165 180 192 194 196 190 184 186 190 193 193 190 189 186 181 182 180 178 178 175 174 178 182 182 181 178 176 177 178 185 185 175 158 140 105 75 70
196 215 251 241 224 222 203 260 232 232 204 200 199 199 204 209 201 197 196 194 194 195 192 191 192 188 188 187 183 180 181 179 181 184 186 186 187 184 179 176 183 189 182 164 144 124 96 80 65
179 202 237 238 204 200 181 247 248 222 200 219 219 214 215 219 213 212 206 201 195 190 191 193 192 192 193 191 186 183 183 183 186 186 187 190 191 187 180 178 186 184 171 159 140 122 101 78 65
198 210 222 236 205 183 191 237 247 213 194 220 225 221 220 225 227 222 212 205 196 193 192 192 193 193 195 192 187 183 181 185 188 187 188 192 190 188 183 183 183 175 163 155 141 111 117 107 74
203 205 208 213 205 182 205 233 246 223 201 222 228 227 224 225 228 222 214 207 198 194 192 193 195 194 191 188 182 179 182 189 189 190 192 190 190 187 183 180 176 168 155 152 144 126 98 98 100
196 194 210 216 198 185 217 236 245 239 222 232 235 230 228 230 233 225 216 206 197 193 192 193 194 193 187 189 191 193 197 195 195 195 193 190 188 185 182 175 170 169 172 170 155 133 120 90 86
214 218 220 232 203 199 231 248 251 240 226 225 229 230 228 232 238 230 217 204 200 199 197 196 196 193 191 194 195 195 189 190 192 187 191 192 189 185 185 177 176 174 167 161 159 143 131 110 88
217 217 216 213 176 216 257 277 256 255 232 234 230 230 229 226 230 228 216 209 203 203 200 199 197 194 194 191 181 166 152 149 177 192 196 194 190 186 184 183 177 176 174 176 174 162 151 149 112
223 215 208 210 210 241 206 261 262 246 254 243 238 233 234 233 230 228 219 212 208 208 202 200 196 195 192 185 183 182 188 194 196 192 191 186 188 186 185 182 179 177 176 175 175 167 156 145 155
212 189 197 211 219 244 225 241 267 239 246 246 238 234 233 233 229 228 222 216 211 205 198 197 193 193 190 188 189 190 195 196 181 171 177 183 186 185 185 182 178 177 177 174 168 164 163 157 157
179 152 174 203 217 240 226 221 260 221 222 235 236 232 231 231 228 228 225 213 209 198 192 190 190 192 190 189 191 193 194 183 173 177 184 186 185 185 184 181 180 178 175 174 173 169 169 166 158
178 171 191 203 215 235 206 212 244 224 215 217 229 234 231 228 224 225 220 209 202 193 190 188 188 191 190 190 193 196 195 188 186 185 186 184 183 189 190 183 181 178 176 172 167 167 172 169 167
193 188 196 199 205 228 187 219 241 228 224 225 231 234 231 225 221 222 219 210 203 196 189 187 189 191 189 191 195 195 192 191 193 187 185 187 192 192 185 182 180 176 172 170 166 167 173 169 173
187 201 199 177 177 200 220 250 283 244 235 231 232 230 230 227 222 221 218 208 201 193 191 189 189 189 189 191 192 192 191 191 190 185 182 187 185 180 176 177 177 174 172 170 167 173 173 169 175
189 172 173 195 190 215 234 230 228 216 217 220 224 227 231 227 222 220 215 207 200 193 188 184 186 189 187 188 190 192 192 191 186 181 184 184 179 172 172 175 176 174 174 172 170 169 169 167 173
175 185 184 188 202 192 221 246 216 204 205 212 220 222 221 219 217 213 206 196 184 175 174 178 181 181 182 185 186 186 187 185 180 183 185 183 176 172 175 178 177 177 177 175 174 174 170 173 175
191 184 181 194 206 196 207 253 238 211 215 214 221 222 218 216 209 200 190 176 173 175 175 177 179 180 183 182 181 183 181 178 180 183 182 178 176 176 177 175 176 179 179 177 178 178 176 179 183
Height
1497 1497 1499 1501 1505 1515 1514 1504 1498 1494 1492 1490 1490 1492 1495 1498 1502 1504 1499 1499 1503 1506 1509 1513 1517 1520 1523 1525 1527 1529 1530 1532 1533 1534 1535 1536 1536 1537 1538 1539 1539 1539 1539 1540 1540 1540 1540 1541 1541
1496 1497 1500 1501 1510 1519 1512 1499 1495 1490 1488 1488 1490 1491 1492 1493 1494 1495 1496 1499 1502 1506 1509 1513 1517 1520 1523 1525 1527 1529 1530 1532 1533 1534 1535 1536 1537 1538 1539 1539 1539 1540 1540 1540 1540 1541 1541 1542 1542
1496 1497 1499 1502 1510 1512 1502 1491 1489 1487 1487 1488 1489 1490 1491 1491 1492 1494 1496 1498 1502 1506 1509 1512 1516 1519 1522 1525 1527 1529 1530 1532 1533 1535 1536 1536 1537 1538 1539 1540 1540 1541 1541 1541 1542 1542 1542 1543 1543
1495 1497 1498 1504 1504 1499 1492 1486 1485 1486 1487 1487 1487 1489 1490 1491 1493 1494 1496 1498 1502 1505 1509 1512 1516 1519 1522 1524 1526 1528 1530 1532 1533 1535 1536 1537 1538 1539 1540 1540 1541 1541 1542 1542 1543 1543 1543 1544 1544
1495 1496 1501 1504 1499 1491 1486 1483 1484 1485 1485 1485 1486 1487 1489 1491 1492 1494 1496 1499 1501 1505 1509 1512 1516 1519 1521 1524 1526 1528 1530 1532 1533 1535 1536 1537 1538 1539 1540 1541 1542 1542 1543 1543 1544 1544 1544 1544 1545
1494 1495 1505 1504 1495 1487 1483 1481 1482 1483 1484 1484 1485 1486 1488 1490 1492 1494 1497 1499 1502 1505 1508 1512 1515 1518 1521 1523 1526 1528 1530 1532 1533 1535 1536 1537 1538 1539 1540 1541 1542 1543 1544 1544 1545 1545 1545 1545 1545
1492 1496 1499 1497 1492 1486 1480 1478 1479 1480 1481 1482 1482 1485 1486 1489 1491 1494 1497 1500 1503 1506 1509 1512 1515 1518 1521 1523 1525 1528 1530 1532 1533 1535 1536 1538 1539 1540 1541 1542 1543 1543 1544 1545 1545 1546 1546 1546 1546
1488 1492 1493 1493 1490 1484 1476 1476 1475 1477 1478 1479 1481 1482 1484 1486 1490 1493 1497 1499 1502 1505 1508 1511 1514 1517 1520 1522 1525 1527 1529 1531 1533 1535 1536 1537 1539 1540 1541 1542 1543 1544 1545 1545 1546 1546 1547 1547 1547
1485 1492 1492 1487 1485 1479 1474 1474 1474 1475 1476 1477 1479 1480 1481 1484 1487 1491 1495 1498 1501 1504 1507 1510 1513 1516 1518 1521 1524 1526 1528 1531 1532 1534 1536 1537 1539 1540 1541 1542 1543 1544 1545 1546 1546 1547 1547 1547 1547
1481 1487 1481 1477 1475 1474 1472 1472 1472 1473 1474 1475 1476 1477 1479 1482 1484 1487 1490 1493 1497 1500 1504 1507 1511 1514 1517 1520 1522 1525 1527 1529 1531 1533 1535 1537 1538 1540 1541 1542 1543 1544 1545 1546 1547 1547 1547 1547 1547
1475 1476 1473 1471 1471 1471 1471 1471 1471 1471 1474 1471 1471 1474 1476 1479 1482 1484 1487 1489 1492 1496 1500 1504 1508 1511 1515 1517 1520 1523 1526 1528 1530 1532 1534 1536 1538 1539 1541 1542 1543 1544 1545 1546 1547 1547 1547 1547 1547
1471 1468 1468 1467 1468 1469 1469 1469 1469 1469 1468 1468 1469 1471 1472 1475 1478 1480 1483 1487 1491 1494 1498 1501 1505 1509 1512 1515 1518 1521 1524 1526 1529 1531 1533 1535 1537 1539 1540 1542 1543 1544 1545 1546 1547 1547 1547 1547 1547
1466 1464 1464 1464 1465 1466 1466 1466 1466 1465 1466 1466 1467 1469 1470 1472 1474 1478 1481 1484 1488 1491 1495 1498 1502 1506 1509 1513 1516 1519 1521 1524 1527 1530 1532 1534 1536 1538 1539 1541 1542 1543 1545 1546 1546 1547 1547 1547 1546
1459 1461 1461 1461 1462 1463 1464 1463 1464 1461 1463 1464 1464 1465 1467 1469 1471 1475 1478 1481 1484 1488 1491 1495 1499 1502 1506 1510 1513 1516 1519 1522 1525 1528 1530 1532 1535 1537 1538 1540 1541 1543 1544 1545 1546 1546 1546 1546 1546
1457 1459 1459 1457 1458 1459 1462 1461 1458 1457 1459 1460 1461 1462 1464 1466 1468 1470 1473 1476 1480 1484 1488 1491 1495 1499 1503 1506 1510 1513 1516 1519 1522 1525 1528 1531 1533 1535 1537 1539 1540 1542 1543 1544 1545 1545 1545 1545 1545
1454 1458 1460 1452 1453 1455 1462 1459 1451 1452 1454 1455 1457 1458 1460 1462 1464 1466 1470 1473 1476 1480 1484 1488 1491 1495 1498 1502 1506 1510 1513 1516 1519 1523 1526 1528 1531 1533 1535 1537 1539 1540 1541 1543 1543 1544 1544 1544 1544
1454 1457 1456 1451 1448 1450 1455 1453 1446 1447 1449 1450 1451 1453 1455 1457 1459 1462 1465 1468 1472 1476 1479 1483 1486 1490 1494 1498 1502 1506 1510 1513 1516 1519 1522 1525 1528 1531 1533 1535 1537 1538 1540 1541 1542 1542 1543 1543 1543
1451 1452 1451 1449 1444 1447 1450 1448 1443 1442 1444 1445 1446 1447 1449 1451 1453 1457 1460 1463 1467 1471 1474 1478 1482 1485 1490 1494 1498 1502 1506 1509 1512 1515 1518 1522 1525 1527 1530 1532 1534 1536 1538 1539 1540 1541 1541 1541 1541
1441 1445 1445 1443 1440 1444 1445 1444 1439 1438 1440 1440 1440 1441 1443 1444 1448 1451 1454 1458 1461 1464 1468 1472 1476 1480 1484 1488 1491 1495 1499 1503 1507 1510 1514 1518 1521 1524 1527 1529 1531 1533 1535 1536 1538 1539 1539 1539 1539
1437 1441 1442 1440 1438 1440 1442 1441 1435 1433 1433 1433 1433 1434 1435 1438 1440 1444 1447 1450 1453 1457 1460 1464 1468 1472 1476 1480 1485 1489 1493 1497 1502 1506 1510 1513 1517 1520 1523 1525 1528 1530 1532 1534 1535 1536 1537 1537 1538
1432 1435 1438 1439 1437 1437 1440 1439 1433 1426 1426 1425 1426 1426 1428 1430 1433 1436 1439 1442 1445 1448 1452 1456 1460 1465 1469 1474 1479 1484 1489 1493 1497 1500 1504 1508 1512 1515 1519 1522 1524 1527 1529 1530 1532 1533 1534 1535 1535
1425 1426 1432 1436 1440 1444 1442 1446 1431 1425 1422 1420 1419 1419 1420 1423 1425 1428 1431 1434 1437 1441 1445 1449 1453 1457 1462 1467 1471 1476 1479 1483 1487 1493 1498 1503 1507 1511 1514 1517 1520 1523 1525 1527 1529 1530 1531 1532 1533
1418 1421 1428 1433 1438 1443 1442 1445 1431 1422 1419 1413 1411 1411 1413 1415 1418 1420 1424 1427 1430 1434 1437 1441 1445 1450 1455 1459 1464 1468 1473 1478 1483 1488 1493 1497 1502 1506 1509 1513 1516 1519 1521 1523 1525 1526 1528 1529 1530
1414 1421 1427 1432 1438 1441 1435 1441 1428 1419 1410 1406 1404 1404 1405 1408 1411 1413 1416 1419 1422 1426 1430 1434 1438 1442 1447 1452 1457 1461 1466 1471 1476 1481 1486 1491 1496 1500 1504 1508 1511 1514 1517 1519 1521 1523 1524 1525 1526
1410 1420 1430 1434 1435 1429 1424 1429 1414 1403 1399 1398 1398 1398 1399 1402 1404 1406 1409 1412 1415 1418 1422 1426 1431 1435 1440 1445 1450 1455 1460 1465 1470 1475 1480 1485 1489 1494 1498 1502 1506 1509 1512 1515 1517 1519 1520 1521 1522
1402 1409 1416 1420 1423 1423 1422 1418 1402 1392 1390 1390 1391 1392 1394 1396 1398 1400 1403 1406 1409 1413 1416 1420 1424 1428 1433 1438 1443 1449 1454 1459 1464 1470 1474 1479 1483 1488 1493 1497 1501 1504 1507 1510 1512 1514 1516 1517 1518
1397 1402 1403 1411 1416 1419 1418 1410 1397 1387 1386 1386 1386 1387 1387 1389 1392 1395 1398 1401 1404 1407 1411 1414 1418 1423 1427 1432 1437 1442 1448 1453 1458 1464 1469 1474 1479 1483 1488 1492 1495 1499 1502 1505 1507 1509 1511 1513 1514
1386 1393 1402 1407 1410 1411 1408 1407 1394 1383 1380 1380 1381 1380 1381 1384 1387 1390 1393 1396 1399 1402 1406 1410 1413 1417 1422 1426 1431 1436 1442 1448 1453 1458 1463 1468 1473 1478 1482 1486 1490 1494 1497 1500 1502 1504 1506 1508 1509
1385 1390 1392 1399 1401 1402 1404 1395 1375 1372 1370 1372 1372 1372 1375 1378 1381 1385 1389 1392 1395 1398 1402 1405 1409 1413 1417 1421 1426 1431 1437 1442 1448 1453 1458 1463 1468 1472 1477 1481 1485 1488 1491 1494 1497 1499 1501 1503 1504
1376 1381 1386 1392 1397 1396 1395 1385 1363 1364 1363 1364 1366 1368 1371 1374 1378 1382 1385 1389 1392 1395 1398 1401 1405 1409 1413 1417 1422 1427 1432 1437 1443 1448 1453 1458 1463 1467 1471 1476 1479 1482 1486 1489 1491 1494 1496 1498 1499